Location: Casa Rossa
(45.2389°N, 12.2056°E)
Time: 23:34:33
(UTC+00:00)

SL-16 R/B - Pass Details

Date: 14 July 2020
Orbit: 843 x 846 km, 71.0° (Epoch: 14 August)

Event Time Altitude Azimuth Distance (km) Brightness Sun altitude
Rises 02:03:17 0° 338° (NNW) 3,416 5.8 -13.2°
Reaches altitude 10° 02:05:54 10° 346° (NNW) 2,478 5.1 -12.9°
Maximum altitude 02:11:14 40° 56° (NE) 1,240 3.7 -12.3°
Drops below altitude 10° 02:16:31 10° 125° (SE) 2,464 4.7 -11.7°
Sets 02:19:07 0° 132° (SE) 3,395 5.4 -11.4°
